Tracking 35331 objects as of 13-Sep-2026
HD Live streaming from Space Station
objects crossing your sky now

STARLINK-34718

Track STARLINK-34718 now!
10-day predictions
STARLINK-34718 is classified as:


NORAD ID: 64911
Int'l Code: 2025-157H
Launch date: July 26, 2025
Source: United States (US)
Launch site: AIR FORCE EASTERN TEST RANGE (AFETR)
Your satellite tracking list
Your tracking list is empty




NASA's NSSDC Master Catalog

Two Line Element Set (TLE):
1 64911U 25157H   26256.09180736  .00013216  00000-0  40155-3 0  9997
2 64911  53.1605 192.5294 0001383  99.1311 260.9848 15.34404192 64857
Source of the keplerian elements: AFSPC